sat.trackr.live / text

‹ back to catalog

STARLINK-36559

NORAD 67555 · 2026-014Z

PAYLOAD ACTIVE UNKNOWN

§ Identity

Operator
Country
US
Launch date
2026-01-22
Launch site
AFWTR
Launch vehicle
Mass (kg)
RCS (m²)

Purposes: comms

External: N2YO · Heavens-Above · Gunter

§ Orbital elements

Epoch: 2026-05-24T23:04:55.515360Z

Period
93.91 min
Inclination
97.2865°
Eccentricity
0.0001618
Mean motion
15.33452524 rev/d
Perigee alt
464.4 km
Apogee alt
466.6 km
Semi-major
6,843.7 km
B*
3.8204e-4
RAAN
32.0307°
Arg perigee
91.6198°
Mean anomaly
268.5230°
Rev number
2,046

§ Raw data

STARLINK-365591 67555U 26014Z   26144.96175365  .00012282  00000+0  38204-3 0  99942 67555  97.2865  32.0307 0001618  91.6198 268.5230 15.33452524 20464

JSON: /api/v1/satellites/67555 · /tle

For live sub-satellite position, see the globe view (requires WebGL).

§ Visibility from observer

Set your observer location to see the next 7 days of passes ≥ 10°. The values pass through the URL so the page stays shareable.

No JS? Fill the form by hand. The geolocation button needs JavaScript.